{"data":{"norad_id":60479,"epoch":"2026-09-22T16:46:40.021248Z","epoch_age_seconds":96216,"freshness":"FRESH","line1":"1 60479U 24149M   26265.69907432  .00005366  00000+0  16599-3 0  9999","line2":"2 60479  97.3693 345.9122 0001106 230.3389 129.7757 15.33917564117031","mean_motion":15.33917564,"eccentricity":0.0001106,"inclination_deg":97.3693,"raan_deg":345.9122,"arg_perigee_deg":230.3389,"mean_anomaly_deg":129.7757,"bstar":0.00016599,"rev_number":11703,"period_min":93.877274359185,"perigee_km":463.38076190954,"apogee_km":464.8942730328,"semimajor_km":6842.2745174712,"source":"CELESTRAK","updated_at":"2026-09-23T09:00:20.654061Z"}}